User: anonymous   Login
Location: Vancouver
(49.2500°N, 123.1330°W)
Time: 02:21:55
(UTC-07:00)
Language:

ERS-2 - Orbit

View from above orbital plane
View from above orbital plane
View from above satellite
View from above satellite

Ground track
Ground track

The orbit data is extracted from the following two-line orbital elements,

1 23560U 95021A   17265.93769613 +.00001446 +00000-0 +69207-4 0  9991
2 23560 098.5598 271.4644 0003289 356.6591 003.4618 15.20987701190212
Epoch (UTC): 22 September 2017 22:30:16
Eccentricity: 0.0003289
inclination: 98.5598°
perigee height: 500 km
apogee height: 505 km
right ascension of ascending node: 271.4644°
argument of perigee: 356.6591°
revolutions per day: 15.20987701
mean anomaly at epoch: 3.4618°
orbit number at epoch: 19021

The dashed part of the orbit path shows where the satellite is in the earth's shadow,  

DLR